Location: Christchurch
(43.5000°S, 172.6000°E)
Time: 22:45:21
(UTC+13:00)

ISS - Visible Passes

Search period start: 19 February 2019 00:00
Search period end: 01 March 2019 00:00
Orbit: 403 x 411 km, 51.6° (Epoch: 19 February)

Date Brightness Start Highest point End Pass type
(mag) Time Alt. Az. Time Alt. Az. Time Alt. Az.
19 Feb -3.1 21:07:02 10° NNW 21:10:08 35° NE 21:13:16 10° ESE visible
19 Feb -2.4 22:43:27 10° W 22:46:40 39° SSW 22:47:52 28° SSE visible
20 Feb -3.2 21:51:46 10° WNW 21:55:06 59° SSW 21:58:28 10° SE visible
20 Feb -1.1 23:29:25 10° WSW 23:31:32 21° SSW 23:31:32 21° SSW visible
21 Feb -3.8 21:00:14 10° NW 21:03:36 83° NNE 21:07:00 10° ESE visible
21 Feb -1.6 22:37:32 10° WSW 22:40:27 26° SSW 22:42:14 17° SSE visible
22 Feb -2.1 21:45:41 10° W 21:48:47 33° SSW 21:51:55 10° SE visible
22 Feb -1.1 23:23:26 10° SW 23:25:28 19° SSW 23:25:28 19° SSW visible
23 Feb -2.7 20:53:52 10° WNW 20:57:10 48° SSW 21:00:28 10° SE visible
23 Feb -1.4 22:31:36 10° WSW 22:34:17 21° S 22:35:54 16° SSE visible
24 Feb -1.5 21:39:42 10° WSW 21:42:32 24° SSW 21:45:22 10° SE visible
24 Feb -1.1 23:17:10 10° SW 23:18:57 19° SSW 23:18:57 19° SSW visible
25 Feb -1.9 20:47:47 10° W 20:50:49 29° SSW 20:53:51 10° SE visible
25 Feb -1.5 22:25:29 10° SW 22:28:06 20° S 22:29:16 17° SSE visible
26 Feb -1.4 21:33:40 10° SW 21:36:19 20° S 21:38:56 10° SE visible
26 Feb -1.2 23:10:38 10° SW 23:12:14 21° SSW 23:12:14 21° SSW visible
27 Feb -1.8 22:19:05 10° SW 22:21:51 23° S 22:22:30 21° SSE visible
28 Feb -1.6 21:27:24 10° SW 21:30:03 20° S 21:32:41 10° SE visible
28 Feb -1.3 23:03:56 10° SW 23:05:26 22° SW 23:05:26 22° SW visible
